Flag Weather past 2 weeks in Chula Vista, California, U.S.A.

Now
61 °F

Clear.


Feels Like: 61 °F
Forecast: 54 / 73 °F
Wind: 3 mph from South

Location: Brown Field Municipal Airport

Current Time: Nov 22, 2014 at 6:32:13 PM

Latest Report: Nov 22, 2014 at 5:53 PM


Visibility: 10 mi

Pressure: 30.02 "Hg

Humidity: 87%

Dew point: 57 °F

Location of Chula VistaLocation

Historic Weather in Chula Vista — Graph

°F

Chula Vista temperature yesterday

Maximum temperature yesterday: 68 °F (at 12:53 PM)
Minimum temperature yesterday: 52 °F (at 11:53 PM)
Average temperature yesterday: 61 °F

Past Weeks' High & Low Weather Summary

 TemperatureHumidityPressure
High87 °F (Nov 8, 11:53 AM)97% (Nov 22, 2:53 AM)30.15 "Hg (Nov 22, 2:53 AM)
Low44 °F (Nov 20, 5:53 AM)4% (Nov 18, 11:53 AM)29.82 "Hg (Nov 9, 4:53 PM)
Average62 °F59%30.01 "Hg
* Reported Nov 7 4:53 PM — Nov 22 4:53 PM, Chula Vista, Weather by CustomWeather, © 2014

Note: Actual official high and low records may vary slightly from our data, if they occured in-between our weather recording intervals... More about our weather records

Advertising

Chula Vista weather history for previous 24 hours

 ConditionsComfort  
Time TempWeatherWind HumidityBarometerVisibility
4:53 PM
Nov 22
62 °FClear.7 mph75%30.03 "Hg10 mi
3:53 PM65 °FSunny.9 mph63%30.03 "Hg10 mi
2:53 PM69 °FSunny.7 mph49%30.04 "Hg10 mi
1:53 PM69 °FSunny.7 mph45%30.04 "Hg10 mi
12:53 PM70 °FSunny.13 mph39%30.04 "Hg10 mi
11:53 AM72 °FSunny.7 mph40%30.06 "Hg10 mi
10:53 AM71 °FSunny.No wind39%30.09 "Hg10 mi
9:53 AM67 °FSunny.7 mph47%30.10 "Hg10 mi
8:53 AM62 °FSunny.8 mph56%30.10 "Hg10 mi
7:53 AM57 °FSunny.9 mph69%30.10 "Hg10 mi
6:53 AM51 °FSunny.6 mph83%30.09 "Hg10 mi
5:53 AM51 °FClear.7 mph86%30.07 "Hg10 mi
4:53 AM51 °FClear.9 mph89%30.05 "Hg9 mi
3:53 AM53 °FClear.No wind89%30.06 "Hg10 mi
2:53 AM49 °FClear.7 mph97%30.06 "Hg10 mi
1:53 AM53 °FClear.No wind89%30.06 "Hg10 mi
12:53 AM53 °FClear.5 mph89%30.06 "Hg10 mi
11:53 PM
Nov 21
52 °FClear.5 mph93%30.05 "Hg10 mi
10:53 PM54 °FClear.7 mph90%30.05 "Hg10 mi
9:53 PM56 °FClear.3 mph87%30.05 "Hg10 mi
8:53 PM59 °FClear.No wind78%30.03 "Hg10 mi
7:53 PM59 °FClear.No wind78%30.02 "Hg10 mi
6:53 PM57 °FClear.No wind81%30.01 "Hg10 mi
Weather by CustomWeather, © 2014

See weather overviewHow to use our weather pages